Virtual United States Air Force

 METAR AND TAF INFORMATION
METAR FOR KALM
ADDS - METARS form results

(2259 UTC 21 September 2018)
Data provider http://aviationweather.gov/metar/data/
 
METAR text: KALM 212255Z AUTO 00000KT 10SM CLR 28/11 A3015 RMK AO2
Conditions at: KALM (ALAMOGORDO WHITE, NM, US) observed 2255 UTC 21 September 2018
Temperature: 28.0°C (82°F)
Dewpoint: 11.0°C (52°F) [RH = 35%]
Pressure (altimeter): 30.15 inches Hg (1021.1 mb)
Winds: calm
Visibility: 10 or more miles (16+ km)
Ceiling: at least 12,000 feet AGL
Clouds: sky clear below 12,000 feet AGL
Weather: automated observation with no human augmentation;
there may or may not be significant weather present at this time

METAR text: KALM 212235Z AUTO 08009KT 10SM SCT060 28/12 A3015 RMK AO2
Conditions at: KALM (ALAMOGORDO WHITE, NM, US) observed 2235 UTC 21 September 2018
Temperature: 28.0°C (82°F)
Dewpoint: 12.0°C (54°F) [RH = 37%]
Pressure (altimeter): 30.15 inches Hg (1021.1 mb)
Winds: from the E (80 degrees) at 10 MPH (9 knots; 4.6 m/s)
Visibility: 10 or more miles (16+ km)
Ceiling: at least 12,000 feet AGL
Clouds: scattered clouds at 6000 feet AGL
Weather: automated observation with no human augmentation;
there may or may not be significant weather present at this time

METAR text: KALM 212215Z AUTO 07013G18KT 10SM OVC060 28/12 A3014 RMK AO2
Conditions at: KALM (ALAMOGORDO WHITE, NM, US) observed 2215 UTC 21 September 2018
Temperature: 28.0°C (82°F)
Dewpoint: 12.0°C (54°F) [RH = 37%]
Pressure (altimeter): 30.14 inches Hg (1020.7 mb)
Winds: from the ENE (70 degrees) at 15 MPH (13 knots; 6.7 m/s)
gusting to 21 MPH (18 knots; 9.3 m/s)
Visibility: 10 or more miles (16+ km)
Ceiling: 6000 feet AGL
Clouds: overcast cloud deck at 6000 feet AGL
Weather: automated observation with no human augmentation;
there may or may not be significant weather present at this time

 AIRPORT MAP

 RUNWAY INFORMATION
Runway 03 Runway length 7006 ft Runway width 150 ft
Runway elevation 4144 ft Runway displaced threshold 0 ft Runway heading 46
Runway 21 Runway length 7006 ft Runway width 150 ft
Runway elevation 4200 ft Runway displaced threshold 0 ft Runway heading 226
Runway 16 Runway length 3512 ft Runway width 200 ft
Runway elevation 4200 ft Runway displaced threshold 0 ft Runway heading 173
Runway 34 Runway length 3512 ft Runway width 200 ft
Runway elevation 4200 ft Runway displaced threshold 0 ft Runway heading 353

 AIRPORT FREQUENCIES
Type APP Name HOLLOMAN A Frequency 120.6 MHZ
Type AWOS Name AWOS 3 Frequency 127.825 MHZ
Type DEP Name HOLLOMAN D Frequency 128.1 MHZ
Type RDO Name ALBUQUERQU Frequency 122.15 MHZ
Type UNIC Name CTAF/UNICO Frequency 122.8 MHZ

 AIRPORT NEAR NAVIGATION AIDS


Neither the Department of the Air Force, nor any other component of the Department of Defense or Federal Government has approved, endorsed, or authorized this promotion, activity, or organization. Virtual United States Air Force organization is in no way affiliated with the Department of Defense, Department of the Air Force, or any other federal or government entity. Virtual United States Air Force is a group of flight simulation enthusiasts with the common interest of promoting enjoyment and cameraderie through the simulation of military operations and procedures utilizing several flight simulation platforms.

Copyright © vUSAF, LLC // 2018 All Rights Reserved